Probability
84 58 32 13 0 0 0 0 0 0 0 0 0 3 3 3 0 0 0 10 13 13 48 58 55 45 42 45 48 42 39 42 42 42 42 55 61 65 68 81 84 74 87 77 84 81 77 74 68
58 45 32 6 0 0 0 0 0 0 0 0 0 0 3 3 3 0 6 13 13 16 23 39 55 48 48 48 42 35 32 35 39 39 39 42 45 45 52 65 74 77 74 81 81 74 74 71 71
58 55 10 0 0 0 0 0 0 0 0 3 0 0 3 6 0 3 3 10 10 13 16 42 48 42 42 32 29 23 23 19 13 23 23 23 39 39 42 45 48 58 74 68 77 81 68 68 68
52 16 3 0 0 0 0 0 0 0 0 3 0 0 0 3 6 3 6 6 6 6 16 29 39 26 26 23 19 13 10 10 10 13 16 19 16 23 42 45 48 55 52 52 68 68 68 65 52
32 0 0 0 0 0 0 0 0 0 0 0 0 0 3 6 0 0 0 0 6 6 13 19 29 29 19 19 16 10 6 10 6 3 6 6 10 13 19 29 35 45 52 61 61 71 65 68 55
6 0 0 0 0 0 0 0 0 0 0 0 0 0 3 0 0 0 3 3 3 0 6 26 32 29 23 23 10 3 3 3 3 3 3 3 3 13 13 23 23 29 42 48 55 61 58 68 61
6 0 0 0 0 0 0 0 0 0 0 0 0 3 3 0 0 0 0 0 0 0 0 10 16 23 23 19 10 3 3 3 3 0 3 3 6 6 13 23 19 29 39 39 42 42 58 58 58
3 0 0 0 0 0 0 0 0 0 0 0 0 3 3 0 0 0 0 0 0 0 0 3 3 3 3 6 10 3 3 0 0 0 0 6 6 6 10 16 19 29 32 39 42 39 52 55 55
3 0 0 0 0 0 0 0 0 0 0 0 3 0 3 3 0 0 0 0 0 0 0 0 3 0 0 0 3 0 0 0 0 0 0 3 0 0 0 6 13 26 26 26 39 45 52 58 58
0 0 0 0 0 0 0 0 0 0 0 3 3 3 3 3 3 0 0 0 0 0 0 0 0 0 0 0 0 0 0 0 0 0 0 0 0 0 0 0 13 19 16 32 32 32 35 39 23
0 0 0 0 0 0 0 0 0 0 0 3 3 3 3 3 0 0 0 0 0 0 0 0 0 0 0 0 0 0 0 0 0 0 0 0 0 0 0 0 0 3 10 10 10 6 10 10 3
0 0 0 0 0 0 0 0 0 0 0 0 3 6 6 3 0 0 0 0 0 0 0 0 0 0 0 0 0 0 0 0 0 0 0 0 0 0 0 0 0 0 0 0 0 0 0 0 0
0 0 0 0 0 0 0 0 0 0 0 3 3 3 6 3 0 0 0 0 0 0 0 0 0 0 0 0 0 0 0 0 0 0 0 0 0 0 0 0 0 0 0 0 0 0 0 0 0
0 0 0 0 0 0 0 0 0 0 0 3 3 3 3 3 0 0 0 0 0 0 0 0 0 0 0 0 0 0 0 0 0 0 0 0 0 0 0 0 0 0 0 0 0 0 0 0 0
0 0 0 0 0 0 0 0 0 0 3 3 3 3 3 3 0 0 0 0 0 0 0 0 0 0 0 0 0 0 0 0 0 0 0 0 0 0 0 0 0 0 0 0 0 0 0 0 0
0 0 0 0 0 0 0 0 0 0 3 3 3 3 3 3 0 0 0 0 0 0 0 0 0 0 0 0 0 0 0 0 0 0 0 0 0 0 0 0 0 0 0 0 0 0 0 0 0
0 0 0 0 0 0 0 0 0 0 3 3 0 0 0 0 0 0 0 0 0 0 0 0 0 0 0 0 0 0 0 0 0 0 0 0 0 0 0 0 0 0 0 0 0 0 0 0 0
0 0 0 0 0 0 0 0 0 0 0 0 0 0 0 0 0 0 0 0 0 0 0 0 0 0 0 0 0 0 0 0 0 0 0 0 0 0 0 0 0 0 0 0 0 0 0 0 0
0 0 0 0 0 0 0 0 0 0 0 0 0 0 0 0 0 0 0 0 0 0 0 0 0 0 0 0 0 0 0 0 0 0 0 0 0 0 0 0 0 0 0 0 0 0 0 0 0
0 0 0 0 0 0 0 0 0 0 0 0 0 0 0 0 0 0 0 0 0 0 0 0 0 0 0 0 0 0 0 0 0 0 0 0 0 0 0 0 0 0 0 0 0 0 0 0 0
0 0 0 0 0 0 0 0 0 0 0 0 0 0 0 0 0 0 0 0 0 0 0 0 0 0 0 0 0 0 0 0 0 0 0 0 0 0 0 0 0 0 0 0 0 0 0 0 0
0 0 0 0 0 0 0 0 0 0 0 0 0 0 0 0 0 0 0 0 0 0 0 0 0 0 0 0 0 0 0 0 0 0 0 0 0 0 0 0 0 0 0 0 0 0 0 0 0
0 0 0 0 0 0 0 0 0 0 0 0 0 0 0 0 0 0 0 0 0 0 0 0 0 0 0 0 0 0 0 0 0 0 0 0 0 0 0 0 0 0 0 0 0 0 0 0 0
0 0 0 0 0 0 0 0 0 0 0 0 0 0 0 0 0 0 0 0 0 0 0 0 0 0 0 0 0 0 0 0 0 0 0 0 0 0 0 0 0 0 0 0 0 0 0 0 0
0 0 0 0 0 0 0 0 0 0 0 0 0 0 0 0 0 0 0 0 0 0 0 0 0 0 0 0 0 0 0 0 0 0 0 0 0 0 0 0 0 0 0 0 0 0 0 0 0
0 0 0 0 0 0 0 0 0 0 0 0 0 0 0 0 0 0 0 0 0 0 0 0 0 0 0 0 0 0 0 0 0 0 0 0 0 0 0 0 0 0 0 0 0 0 0 0 0
0 0 0 0 0 0 0 0 0 0 0 0 0 0 0 0 0 0 0 0 0 0 0 0 0 0 0 0 0 0 0 0 0 0 0 0 0 0 0 0 0 0 0 0 0 0 0 0 0
0 0 0 0 0 0 0 0 0 0 0 0 0 0 0 0 0 0 0 0 0 0 0 0 0 0 0 0 0 0 0 0 0 0 0 0 0 0 0 0 0 0 0 0 0 0 0 0 0
0 0 0 0 0 0 0 0 0 0 0 0 0 0 0 0 0 0 0 0 0 0 0 0 0 0 0 0 0 0 0 0 0 0 0 0 0 0 0 0 0 0 0 0 0 0 0 0 0
0 0 0 0 0 0 0 0 0 0 0 0 0 0 0 0 0 0 0 0 0 0 0 0 0 0 0 0 0 0 0 0 0 0 0 0 0 0 0 0 0 0 0 0 0 0 0 0 0
Height
5880 5880 5880 5880 5879 5879 5878 5878 5878 5879 5880 5880 5880 5881 5881 5882 5883 5884 5881 5878 5878 5877 5876 5875 5873 5872 5871 5870 5869 5868 5866 5865 5864 5863 5862 5862 5861 5860 5860 5859 5860 5860 5860 5861 5861 5862 5862 5863 5864
5879 5879 5880 5879 5878 5878 5878 5878 5878 5879 5880 5880 5880 5880 5880 5880 5880 5880 5878 5877 5876 5875 5874 5873 5871 5870 5868 5867 5866 5864 5863 5862 5860 5859 5858 5857 5857 5856 5856 5855 5855 5856 5856 5857 5857 5858 5859 5859 5860
5879 5879 5879 5878 5877 5877 5877 5877 5877 5878 5879 5879 5879 5879 5879 5879 5878 5878 5877 5875 5874 5873 5872 5870 5869 5867 5866 5864 5863 5861 5860 5858 5857 5855 5854 5853 5852 5852 5851 5851 5851 5851 5851 5852 5853 5854 5855 5856 5857
5878 5878 5878 5877 5876 5876 5876 5876 5876 5878 5878 5878 5878 5878 5877 5877 5877 5876 5875 5873 5872 5871 5869 5868 5866 5865 5863 5861 5860 5858 5856 5855 5853 5852 5850 5849 5848 5847 5847 5846 5846 5846 5847 5847 5848 5849 5850 5851 5853
5876 5876 5876 5875 5875 5875 5875 5875 5875 5876 5877 5877 5877 5876 5875 5875 5874 5874 5872 5871 5870 5869 5867 5866 5864 5862 5861 5859 5857 5855 5854 5852 5850 5848 5847 5845 5844 5843 5842 5842 5841 5841 5841 5842 5843 5844 5845 5847 5848
5874 5874 5874 5874 5873 5874 5874 5874 5875 5875 5876 5876 5876 5875 5874 5873 5873 5872 5871 5869 5868 5867 5865 5863 5862 5860 5859 5857 5855 5853 5851 5850 5848 5846 5844 5842 5840 5839 5838 5837 5836 5836 5836 5837 5837 5839 5840 5842 5843
5872 5872 5872 5872 5872 5872 5873 5872 5873 5873 5874 5874 5874 5873 5872 5872 5871 5870 5869 5868 5866 5865 5863 5861 5860 5858 5857 5855 5853 5851 5849 5847 5845 5843 5841 5839 5837 5835 5834 5832 5831 5831 5831 5831 5832 5833 5835 5836 5838
5868 5870 5869 5870 5870 5871 5871 5871 5871 5872 5872 5872 5872 5872 5871 5870 5869 5868 5868 5866 5865 5863 5862 5860 5858 5857 5855 5853 5851 5849 5847 5845 5843 5841 5838 5836 5833 5831 5829 5828 5826 5826 5826 5826 5826 5827 5829 5831 5833
5865 5867 5867 5867 5868 5868 5869 5869 5870 5870 5871 5871 5871 5871 5870 5869 5868 5867 5866 5865 5863 5862 5860 5859 5857 5856 5854 5852 5850 5848 5846 5843 5840 5838 5835 5833 5830 5827 5825 5823 5822 5821 5820 5820 5821 5822 5823 5825 5827
5861 5863 5864 5865 5866 5866 5866 5867 5868 5868 5869 5869 5869 5868 5867 5867 5866 5865 5864 5863 5862 5860 5859 5858 5856 5855 5852 5850 5848 5846 5844 5841 5838 5835 5832 5829 5827 5824 5821 5819 5818 5816 5815 5815 5815 5816 5817 5819 5821
5858 5860 5861 5862 5863 5864 5864 5865 5866 5866 5867 5867 5867 5866 5865 5865 5864 5863 5862 5861 5860 5859 5858 5857 5855 5853 5851 5849 5847 5844 5841 5839 5835 5832 5829 5826 5823 5820 5818 5815 5813 5811 5810 5810 5810 5810 5811 5813 5816
5855 5857 5857 5858 5859 5861 5862 5863 5863 5864 5866 5865 5865 5865 5864 5863 5862 5861 5860 5859 5858 5857 5856 5855 5853 5851 5849 5847 5845 5842 5839 5836 5833 5830 5826 5823 5820 5817 5814 5811 5809 5807 5805 5805 5805 5805 5806 5808 5810
5852 5854 5855 5855 5857 5859 5860 5861 5861 5862 5863 5863 5863 5862 5862 5861 5861 5860 5859 5858 5857 5855 5854 5853 5851 5849 5847 5845 5843 5840 5837 5834 5831 5827 5824 5820 5816 5813 5810 5807 5805 5803 5801 5800 5800 5800 5801 5803 5805
5849 5852 5853 5854 5855 5856 5858 5859 5860 5860 5861 5861 5861 5861 5860 5860 5859 5858 5857 5856 5855 5854 5852 5851 5849 5848 5846 5844 5841 5838 5835 5831 5828 5824 5821 5817 5813 5810 5806 5803 5801 5798 5797 5795 5795 5795 5796 5798 5801
5847 5850 5852 5853 5854 5855 5857 5858 5858 5859 5859 5859 5859 5859 5858 5858 5857 5856 5855 5854 5853 5852 5851 5849 5848 5846 5844 5842 5839 5836 5832 5829 5826 5822 5818 5814 5810 5806 5803 5800 5797 5794 5792 5791 5791 5791 5792 5794 5796
5846 5849 5850 5852 5853 5855 5858 5857 5857 5857 5858 5858 5857 5857 5856 5856 5855 5855 5853 5853 5851 5850 5849 5848 5847 5845 5843 5840 5837 5833 5830 5827 5823 5819 5816 5811 5807 5803 5799 5796 5793 5791 5789 5787 5786 5787 5787 5789 5792
5844 5847 5849 5851 5853 5854 5855 5856 5856 5856 5856 5856 5855 5855 5854 5854 5853 5852 5851 5851 5850 5849 5847 5846 5845 5843 5841 5838 5835 5832 5828 5825 5821 5817 5813 5809 5805 5801 5797 5793 5790 5788 5786 5784 5783 5783 5784 5785 5788
5843 5846 5848 5850 5852 5853 5853 5854 5855 5854 5854 5854 5853 5853 5853 5852 5851 5850 5849 5848 5848 5847 5846 5845 5843 5842 5840 5837 5834 5830 5827 5823 5819 5815 5812 5807 5803 5799 5795 5791 5788 5785 5783 5781 5780 5780 5780 5782 5784
5842 5845 5847 5849 5850 5852 5852 5853 5853 5853 5852 5852 5851 5851 5851 5850 5849 5848 5847 5846 5846 5845 5844 5843 5842 5840 5838 5836 5832 5828 5825 5821 5818 5814 5810 5806 5802 5797 5793 5790 5787 5784 5781 5779 5778 5778 5778 5780 5782
5842 5845 5847 5848 5850 5851 5851 5852 5852 5852 5851 5850 5850 5849 5849 5848 5847 5846 5845 5844 5844 5843 5842 5841 5840 5839 5837 5834 5831 5827 5823 5820 5816 5812 5809 5805 5800 5796 5793 5789 5786 5783 5780 5778 5777 5776 5777 5778 5780
5842 5845 5847 5848 5849 5850 5851 5851 5851 5851 5850 5849 5847 5847 5846 5845 5845 5844 5843 5842 5842 5841 5841 5840 5839 5838 5835 5833 5829 5826 5822 5819 5815 5811 5808 5804 5800 5796 5792 5789 5785 5782 5780 5778 5777 5776 5776 5777 5779
5842 5844 5846 5847 5849 5849 5850 5850 5850 5849 5848 5847 5846 5845 5844 5843 5843 5842 5841 5841 5840 5840 5839 5838 5837 5836 5834 5832 5828 5825 5821 5818 5814 5811 5807 5803 5799 5796 5792 5788 5785 5783 5780 5778 5777 5777 5777 5777 5779
5843 5844 5846 5847 5848 5849 5849 5849 5849 5847 5847 5846 5844 5843 5842 5841 5841 5840 5839 5839 5838 5838 5838 5837 5836 5834 5833 5830 5827 5824 5820 5817 5814 5810 5806 5803 5799 5795 5792 5788 5786 5783 5781 5779 5778 5777 5777 5778 5779
5843 5845 5846 5847 5848 5848 5848 5848 5847 5846 5845 5844 5843 5842 5841 5840 5839 5838 5837 5837 5836 5836 5836 5835 5834 5833 5831 5829 5826 5823 5820 5817 5813 5810 5806 5802 5799 5795 5792 5789 5786 5784 5782 5780 5779 5778 5778 5778 5779
5843 5845 5847 5847 5847 5847 5846 5846 5846 5844 5844 5843 5841 5840 5839 5838 5837 5836 5835 5835 5834 5834 5834 5833 5832 5831 5829 5827 5825 5822 5819 5816 5813 5809 5806 5802 5799 5796 5792 5789 5787 5785 5783 5781 5780 5779 5779 5779 5780
5843 5845 5847 5847 5846 5845 5845 5844 5844 5843 5841 5840 5839 5838 5837 5836 5835 5834 5833 5832 5832 5832 5831 5831 5830 5829 5828 5826 5824 5821 5819 5816 5812 5809 5806 5802 5799 5796 5793 5790 5788 5785 5784 5782 5781 5780 5780 5780 5780
5842 5843 5844 5845 5844 5844 5843 5842 5842 5840 5839 5838 5837 5836 5835 5834 5833 5832 5831 5830 5829 5829 5829 5828 5828 5827 5826 5824 5822 5820 5818 5815 5812 5809 5806 5802 5799 5796 5794 5791 5788 5786 5785 5783 5782 5781 5781 5781 5781
5842 5842 5843 5843 5843 5842 5842 5840 5840 5838 5836 5835 5834 5833 5832 5831 5830 5829 5828 5827 5827 5826 5826 5826 5825 5825 5824 5822 5821 5819 5816 5814 5811 5808 5805 5802 5800 5797 5794 5791 5789 5787 5785 5784 5782 5782 5781 5781 5781
5841 5841 5841 5841 5841 5840 5839 5841 5837 5835 5834 5832 5831 5830 5829 5828 5827 5826 5826 5825 5824 5823 5823 5823 5822 5822 5821 5820 5819 5817 5815 5813 5810 5808 5805 5802 5800 5797 5794 5792 5789 5787 5785 5784 5783 5782 5781 5781 5781
5840 5840 5839 5839 5838 5837 5837 5839 5834 5832 5831 5830 5829 5827 5826 5825 5824 5823 5823 5822 5821 5820 5819 5819 5819 5819 5818 5817 5816 5815 5813 5811 5809 5807 5804 5802 5799 5797 5795 5792 5790 5788 5786 5784 5783 5782 5782 5781 5781
Wind_Speed
4 4 4 4 3 2 2 5 5 4 4 2 0 2 4 5 6 6 8 9 10 11 12 13 14 15 15 16 17 18 19 20 20 21 21 22 22 23 23 23 23 24 23 23 22 22 22 22 21
5 5 5 5 4 2 3 4 4 3 3 1 1 3 5 6 7 7 9 10 11 12 13 14 14 15 16 17 17 18 19 20 21 21 22 22 23 23 24 24 25 26 26 26 24 24 23 23 23
7 6 6 5 5 3 3 4 3 2 1 1 2 4 6 7 8 8 9 11 11 12 13 14 15 15 16 17 17 18 18 19 19 20 21 22 22 23 24 25 26 26 27 27 26 25 25 24 23
8 7 7 7 6 5 4 2 2 1 1 3 4 5 7 8 9 9 9 10 11 12 12 14 14 14 15 15 16 16 17 17 17 18 18 20 21 22 23 24 24 25 27 28 28 27 27 26 24
10 9 9 9 7 6 6 3 3 1 2 4 5 7 8 9 9 9 9 10 11 12 13 13 12 12 13 13 14 14 15 15 15 16 17 18 19 20 21 23 23 24 25 27 28 29 28 28 26
12 11 10 10 9 7 5 4 3 2 3 5 6 7 8 8 9 8 8 8 10 12 12 12 11 11 11 12 12 13 13 14 14 15 16 17 18 19 20 21 22 23 24 25 26 28 28 28 28
14 12 12 11 11 9 8 5 4 5 5 6 7 8 9 9 9 9 8 9 10 11 11 11 11 11 11 11 12 12 13 13 14 15 16 16 17 18 19 20 22 23 23 24 25 27 27 28 28
15 15 14 13 12 11 9 7 5 4 5 6 8 8 9 9 9 8 8 9 10 10 10 10 10 10 10 11 11 12 13 14 15 15 16 17 17 18 18 19 21 22 23 24 25 27 27 27 28
18 17 16 14 13 11 8 7 5 5 5 7 8 9 9 8 8 8 9 10 10 9 9 8 8 9 10 10 11 12 13 14 15 16 17 17 18 18 18 19 19 20 21 23 24 26 27 27 27
19 19 18 16 14 11 9 6 5 4 6 7 9 9 8 8 8 9 10 10 10 9 8 7 7 8 9 10 11 13 14 15 16 17 18 18 18 19 19 19 19 19 20 21 23 24 26 26 27
20 20 18 17 15 12 9 6 5 5 6 7 8 8 8 8 8 8 10 10 9 8 7 7 7 8 9 11 12 13 15 16 17 18 19 19 19 19 19 19 18 19 19 19 20 22 24 25 26
21 20 18 16 13 10 8 6 5 5 6 6 7 9 9 9 8 8 9 9 8 7 6 7 8 9 10 12 14 15 16 17 18 19 19 20 20 20 19 18 17 17 17 18 19 20 22 23 25
22 20 18 14 11 10 8 7 6 6 6 7 8 9 9 9 8 8 8 8 8 7 7 8 9 10 11 13 15 16 17 18 18 19 20 20 20 20 19 17 16 16 16 16 17 19 21 21 23
21 19 16 12 10 9 8 6 4 5 6 7 8 9 10 9 8 8 7 7 7 7 8 8 9 10 12 14 15 16 17 18 19 20 20 20 20 20 19 17 16 15 14 14 15 16 19 20 21
18 16 14 12 9 7 7 5 3 4 5 6 7 8 8 9 8 7 7 7 7 7 7 8 9 10 12 14 16 17 18 19 19 20 20 20 20 20 19 17 16 14 13 13 14 15 17 20 20
15 13 11 8 6 5 5 4 3 4 4 5 6 7 7 8 7 7 7 7 6 7 7 8 9 11 13 14 16 17 18 19 19 19 20 20 20 20 19 17 15 13 12 11 12 14 16 19 20
13 12 9 7 5 4 3 2 2 3 4 5 5 6 7 8 7 7 7 6 6 7 7 8 9 11 13 15 17 18 18 19 19 19 20 20 20 19 18 16 14 12 10 10 10 12 14 17 18
11 10 9 7 5 3 1 0 1 3 4 5 5 6 6 7 7 6 6 6 6 7 7 8 9 11 13 15 17 18 18 19 19 19 19 20 19 19 17 15 13 12 10 8 8 9 12 15 17
8 7 6 5 3 1 1 1 2 4 4 5 5 6 6 7 6 6 6 6 6 6 7 8 9 10 13 15 17 18 18 18 18 18 19 19 19 18 17 15 13 11 9 8 6 7 9 12 15
7 7 5 4 3 2 1 2 3 4 4 5 6 6 6 6 6 6 7 7 6 6 7 8 9 10 13 15 17 18 17 17 18 18 18 18 19 18 16 16 13 11 9 7 5 3 6 10 12
8 6 6 4 3 2 1 1 2 3 4 5 6 7 8 8 6 6 7 7 6 6 7 7 8 10 12 14 16 17 17 16 17 17 18 18 18 17 16 16 13 10 8 6 3 1 3 7 10
8 7 5 4 3 2 1 2 3 4 5 6 7 8 9 9 7 6 7 7 7 6 7 7 8 9 12 14 15 16 16 16 17 17 17 17 17 17 16 15 13 11 9 6 4 1 2 5 7
9 7 5 3 2 1 2 3 5 6 7 8 9 10 10 9 8 6 6 7 7 7 7 7 8 9 11 13 14 15 15 15 16 17 17 17 17 16 15 14 12 10 8 6 4 2 1 4 6
7 5 3 1 1 1 2 4 6 7 9 10 10 11 11 10 8 7 7 7 7 7 7 7 8 9 10 12 13 14 14 15 16 16 16 16 16 16 15 13 11 10 8 7 5 4 2 4 6
6 4 3 2 2 2 3 5 7 9 10 11 12 12 11 10 9 8 8 8 7 7 7 8 8 8 9 11 12 13 13 14 15 16 16 15 15 15 15 14 11 10 8 7 5 4 3 3 5
4 3 2 2 2 3 5 7 9 10 11 13 13 12 11 10 9 9 9 8 8 8 8 8 8 8 9 10 11 12 13 13 14 15 15 14 15 15 14 13 12 10 8 6 5 4 3 2 3
3 1 1 2 3 5 6 8 10 12 14 15 15 13 12 11 10 9 9 9 9 9 9 9 9 9 9 9 10 11 12 12 13 14 14 14 14 14 13 12 11 10 8 6 5 4 3 1 1
1 1 2 3 5 6 7 10 12 15 16 16 16 15 13 11 10 10 10 10 11 11 10 10 10 10 9 9 9 10 11 11 12 13 13 13 13 13 13 12 11 10 9 7 6 4 3 1 1
0 2 4 5 6 7 8 9 13 15 16 17 16 15 13 11 11 11 11 12 12 12 12 12 11 11 11 10 9 10 10 10 11 11 12 12 12 12 12 12 11 10 9 8 6 5 3 2 1
2 3 5 6 7 9 9 9 12 14 15 16 16 15 14 12 11 11 11 12 13 14 14 14 13 13 12 11 10 10 10 10 10 10 11 11 11 11 12 11 11 10 9 8 6 5 3 2 1
Wind_Direction
268 278 291 296 303 287 171 157 159 142 133 137 253 300 292 295 299 298 298 298 299 302 303 303 301 302 302 301 299 296 291 287 284 280 277 273 271 270 267 264 262 260 258 258 257 256 255 254 255
259 268 281 288 293 293 180 169 169 147 121 111 302 302 295 295 298 301 302 299 301 304 305 305 304 304 304 303 301 297 294 290 287 283 279 275 272 269 267 266 264 261 257 255 254 255 255 254 254
251 258 271 277 282 268 231 201 187 161 126 347 318 300 294 294 296 300 303 302 304 307 308 308 307 307 306 305 303 300 297 295 291 288 283 278 274 272 270 268 265 261 257 254 253 253 253 253 253
247 252 262 268 277 270 264 252 224 216 324 320 310 300 296 296 298 303 302 302 308 311 311 310 310 310 309 308 308 307 305 302 299 296 291 285 279 276 272 270 267 263 259 255 252 252 253 252 252
242 244 253 265 271 270 275 253 216 245 319 321 306 302 301 302 304 307 304 307 312 314 314 316 315 315 315 316 317 316 315 312 308 304 300 294 288 283 278 273 270 265 262 257 253 252 252 251 250
236 240 248 261 268 273 268 263 243 267 300 310 307 308 306 307 311 315 316 314 316 318 319 320 320 321 322 324 324 324 324 322 318 314 310 303 296 288 282 277 272 267 262 257 254 252 250 250 249
233 238 247 256 263 268 269 265 258 283 298 305 306 310 307 306 310 315 320 321 321 322 323 323 324 325 328 332 332 332 331 329 325 322 317 311 305 298 290 282 275 269 263 259 254 252 249 249 247
234 236 243 249 257 260 262 258 262 273 304 309 310 309 307 305 307 313 321 324 324 324 325 326 327 329 333 337 338 339 336 333 331 327 323 319 313 307 299 290 281 274 266 261 256 252 250 248 246
230 233 241 249 253 255 251 247 262 275 301 308 306 306 307 310 309 311 318 321 323 324 323 323 327 332 336 341 343 342 338 336 334 331 327 323 318 311 304 297 289 280 271 264 259 254 251 248 244
227 237 241 246 243 245 239 238 257 271 291 298 303 307 307 311 311 313 319 324 324 322 321 321 327 335 339 343 344 341 339 337 335 334 330 325 321 315 308 300 292 285 276 266 259 253 249 246 242
230 237 239 243 243 245 235 240 260 273 289 298 306 307 308 310 309 314 321 322 319 316 319 325 330 336 341 343 343 342 339 338 337 335 331 328 323 319 313 304 296 287 279 269 261 253 247 243 239
231 236 239 244 242 243 244 252 264 283 299 302 305 301 306 307 310 315 319 316 314 312 319 328 333 339 343 343 342 341 339 338 338 335 331 329 327 323 317 309 301 293 282 271 262 254 245 240 236
229 237 243 246 247 247 250 256 263 275 289 302 304 306 308 310 310 311 313 312 309 312 322 330 334 339 341 341 342 342 340 339 338 336 334 332 330 327 323 316 306 298 285 273 263 254 243 237 232
231 238 245 251 255 252 255 261 269 285 287 293 298 301 303 309 314 312 309 309 308 313 320 328 333 337 340 341 343 342 340 340 339 338 337 335 332 329 325 320 313 303 289 274 264 254 243 237 232
228 234 239 244 240 245 260 258 267 281 284 290 295 301 304 310 314 309 305 307 308 311 317 325 330 335 340 343 343 342 341 341 340 340 340 338 336 333 328 322 317 309 293 276 264 252 243 236 231
217 222 222 222 220 228 242 251 258 278 293 302 304 305 309 309 307 304 304 303 308 309 314 322 329 336 341 343 344 343 343 343 342 342 342 342 340 337 332 325 321 314 300 281 266 252 242 234 228
219 220 219 212 208 222 231 248 264 294 306 312 315 315 312 303 300 299 300 301 306 309 314 322 328 336 342 344 345 344 344 344 344 345 345 345 343 341 339 330 325 318 305 289 272 252 241 231 226
208 205 203 192 179 197 210 287 310 323 324 320 326 325 316 305 304 299 297 301 305 309 314 319 327 336 342 344 345 345 344 345 346 347 347 348 347 346 345 339 331 325 316 298 278 252 236 227 222
176 176 186 188 172 173 73 12 333 338 336 327 329 331 324 314 308 301 298 301 306 309 311 317 326 335 340 342 345 345 345 346 347 349 349 350 350 349 349 346 340 334 327 315 290 254 232 220 216
174 178 171 156 138 118 88 355 344 348 340 332 333 333 331 324 312 300 299 301 303 308 311 316 324 333 339 342 345 346 346 347 349 350 351 352 352 352 352 352 350 345 339 329 317 259 217 210 210
164 153 136 126 113 121 150 1 16 3 353 346 340 336 334 332 322 305 298 299 301 306 308 312 319 330 338 342 344 347 348 349 351 352 352 353 355 355 355 355 357 357 355 353 348 302 200 199 204
141 139 135 127 118 125 127 51 28 22 10 351 342 336 335 336 327 309 298 297 300 304 304 307 314 326 335 341 345 349 351 352 353 353 354 354 356 357 358 358 0 2 7 13 21 36 180 190 191
133 140 148 139 131 91 13 11 10 13 8 358 348 338 334 334 327 311 299 295 296 300 300 303 309 322 332 340 345 350 353 355 355 354 355 356 358 359 359 1 3 5 11 16 18 29 167 180 182
133 138 142 146 166 275 341 354 357 359 0 357 350 342 333 329 324 309 297 292 291 293 294 298 306 318 329 338 344 348 352 355 356 357 357 359 1 2 3 4 7 8 11 16 19 28 96 160 168
134 142 154 182 206 274 312 327 337 345 348 347 342 338 332 325 317 303 293 288 286 288 289 295 303 313 324 334 341 346 349 353 356 357 359 0 2 3 4 7 8 9 12 18 21 28 68 134 162
136 146 181 209 253 298 311 312 323 331 333 333 332 330 327 323 314 300 290 286 283 284 286 290 297 307 317 327 336 342 346 351 355 356 358 360 2 4 5 6 8 9 13 18 23 31 50 77 140
151 164 206 258 286 298 306 307 312 318 321 323 326 325 323 319 313 304 294 286 284 284 284 285 290 298 307 318 328 335 342 348 353 356 357 359 1 3 6 7 8 8 10 13 15 21 30 55 114
162 272 300 300 298 298 299 301 306 310 314 319 323 325 320 314 309 304 295 287 283 282 282 281 282 289 296 306 317 325 334 342 349 354 357 359 1 4 6 8 9 9 9 9 9 15 24 46 128
283 295 300 304 304 302 300 303 302 303 309 314 319 320 319 314 304 297 292 285 281 278 277 278 276 279 285 293 303 313 323 332 341 349 354 358 360 2 4 6 7 9 10 11 14 19 23 38 66
288 297 304 309 311 308 306 305 300 304 309 313 316 317 317 313 306 293 286 282 280 276 274 274 272 273 278 283 290 299 309 319 329 338 346 352 356 358 360 3 6 7 9 11 13 16 20 24 17